This demonstration page uses our WeatherBlox Daily Observations layout. Learn more.

Left ArrowRight Arrow

Hourly Observations for May 28, 2018

Temp ( °F °C ) Dew Point ( °F °C ) Humidity (%) Winds ( mph kmh ) Pressure ( in mb ) Visibility ( mi km ) Precip ( " mm )
12:53 am 00:53 Mostly Cloudy 61 16.1 53 11.7 75 75 E 3 6 29.97 1015 10 16 N/A
1:53 am 01:53 Mostly Cloudy 59 15 51 10.6 75 75 NW 3 6 29.98 1015 10 16 N/A
2:53 am 02:53 Clear 59 15 50 10 72 72 E 3 6 29.98 1015 10 16 N/A
3:53 am 03:53 Clear 56 13.3 49 9.4 77 77 ENE 7 11 29.99 1016 10 16 N/A
4:53 am 04:53 Clear 58 14.4 50 10 75 75 E 9 15 29.98 1015 10 16 N/A
5:53 am 05:53 Sunny 56 13.3 51 10.6 84 84 ENE 8 13 29.98 1015 10 16 N/A
6:53 am 06:53 Sunny 59 15 51 10.6 75 75 E 8 13 29.97 1015 10 16 N/A
7:53 am 07:53 Sunny 65 18.3 53 11.7 66 66 E 7 11 29.96 1015 10 16 N/A
8:53 am 08:53 Mostly Sunny 70 21.1 53 11.7 55 55 E 10 17 29.96 1015 10 16 N/A
9:53 am 09:53 Mostly Sunny 76 24.4 50 10 40 40 N N/A 29.94 1014 10 16 N/A
10:53 am 10:53 Sunny 78 25.6 50 10 37 37 N N/A 29.92 1013 10 16 N/A
11:53 am 11:53 Sunny 81 27.2 40 4.4 23 23 ESE 7 11 29.90 1012 10 16 N/A
12:53 pm 12:53 Sunny 82 27.8 40 4.4 22 22 ESE 13 20 29.88 1012 10 16 N/A
1:53 pm 13:53 Sunny 83 28.3 42 5.6 24 24 VRB 7 11 29.86 1011 10 16 N/A
2:53 pm 14:53 Sunny 83 28.3 46 7.8 27 27 SE 15 24 29.84 1010 10 16 N/A
3:53 pm 15:53 Sunny 84 28.9 49 9.4 30 30 ESE 17 28 29.82 1010 10 16 N/A
4:53 pm 16:53 Sunny 82 27.8 51 10.6 34 34 ESE 17 28 29.80 1009 10 16 N/A
5:53 pm 17:53 Sunny 81 27.2 51 10.6 35 35 ESE 12 19 29.78 1009 10 16 N/A
6:53 pm 18:53 Sunny 79 26.1 52 11.1 39 39 SE 14 22 29.77 1008 10 16 N/A
7:53 pm 19:53 Partly Cloudy 78 25.6 51 10.6 39 39 ESE 12 19 29.75 1007 10 16 N/A
8:53 pm 20:53 Sunny 73 22.8 55 12.8 53 53 ESE 7 11 29.75 1007 10 16 N/A
9:53 pm 21:53 Clear 69 20.6 55 12.8 61 61 ESE 7 11 29.75 1007 10 16 N/A
10:53 pm 22:53 Clear 69 20.6 53 11.7 57 57 SSW 8 13 29.74 1007 10 16 N/A
11:53 pm 23:53 Clear 64 17.8 52 11.1 65 65 WSW 3 6 29.73 1007 10 16 N/A

Powered by AerisWeather